{"data":{"norad_id":68589,"intl_designator":"2026-072S","name":"KUIPER-00285","alt_names":[],"object_type":"PAYLOAD","status":"ACTIVE","operator":null,"country":"US","launch_date":"2026-04-04","launch_site_code":"AFETR","launch_vehicle":null,"mission":null,"orbit_class":"UNKNOWN","rcs_meters":null,"size_class":null,"mass_kg":null,"dimensions":null,"purposes":[],"wikipedia_slug":null,"has_3d_model":false,"image_url":null,"decayed_at":null,"tle_current":{"epoch":"2026-05-25T03:00:52.291872Z","epoch_age_seconds":67506,"freshness":"FRESH","line1":"1 68589U 26072S   26145.12560523  .00030002  00000+0  78846-3 0  9995","line2":"2 68589  51.8756 288.3653 0006712 292.3178  67.7097 15.38326665  7832","mean_motion":15.38326665,"eccentricity":0.0006712,"inclination_deg":51.8756,"raan_deg":288.3653,"arg_perigee_deg":292.3178,"mean_anomaly_deg":67.7097,"bstar":0.00078846,"rev_number":783,"period_min":93.608206420838,"perigee_km":446.47344169248,"apogee_km":455.64095198231,"semimajor_km":6829.1941968374,"source":"CELESTRAK","updated_at":"2026-05-25T13:38:07.951817Z"}}}